Weather History for Gwinn, MI

Change the Weather History Date:

Tuesday, February 5, 2013

  Actual Average (KESC) Record (KESC)
Temperature  
Mean Temperature 5 °F -  
Max Temperature 21 °F 22 °F 47 °F (1987)
Min Temperature -11 °F 3 °F -15 °F (1982)
Degree Days  
Heating Degree Days 60    
Moisture  
Dew Point -1 °F    
Average Humidity 79    
Maximum Humidity 86    
Minimum Humidity 58    
Precipitation  
Precipitation 0.00 in - - ()
Sea Level Pressure  
Sea Level Pressure 29.76 in    
Wind  
Wind Speed 5 mph (West)    
Max Wind Speed 18 mph    
Max Gust Speed 24 mph    
Visibility 8 miles    
Events Snow    
Averages and records for this station are not official NWS values.
T = Trace of Precipitation, MM = Missing Value Source: NWS Daily Summary

Daily Weather History Graph

Daily Weather History Graph

Search for Another Location

Airport:

Trip Planner

Search our weather history database for the weather conditions in past years. The results will help you decide how hot, cold, wet, or windy it might be!

Date:

Astronomy

Feb. 05, 2013 Rise Set
Actual Time 8:07 AM EST 6:00 PM EST
Civil Twilight 7:35 AM EST 6:32 PM EST
Nautical Twilight 6:59 AM EST 7:08 PM EST
Astronomical Twilight 6:24 AM EST 7:43 PM EST
Moon 3:55 AM EST (2/5) 1:10 PM EST (2/5)
Length of Visible Light 10h 56m
Length of Day
9h 53m
Waning Crescent, 27% of the Moon is Illuminated
Feb 5
Waning Crescent
Feb 10
New
Feb 17
First Quarter
Feb 25
Full
Mar 4
Last Quarter

Hourly Weather History & Observations

Time (EST) Temp. Windchill Dew Point Humidity Pressure Visibility Wind Dir Wind Speed Gust Speed Precip Events Conditions
12:17 AM -6.5 °F - -11.2 °F 80% 29.79 in 10.0 mi Calm Calm - N/A   Mostly Cloudy
12:37 AM -7.2 °F - -11.4 °F 82% 29.79 in 10.0 mi Calm Calm - N/A   Overcast
12:57 AM -8.0 °F - -12.8 °F 79% 29.78 in 10.0 mi Calm Calm - N/A   Scattered Clouds
1:16 AM -7.6 °F - -11.4 °F 84% 29.77 in 10.0 mi Calm Calm - N/A   Clear
1:37 AM -9.4 °F - -14.4 °F 78% 29.77 in 10.0 mi Calm Calm - N/A   Mostly Cloudy
1:57 AM -11.4 °F - -16.6 °F 78% 29.76 in 10.0 mi Calm Calm - N/A   Overcast
2:16 AM -8.7 °F - -13.4 °F 80% 29.76 in 10.0 mi Calm Calm - N/A   Overcast
2:37 AM -7.8 °F - -12.5 °F 80% 29.75 in 10.0 mi Calm Calm - N/A   Overcast
2:57 AM -3.8 °F -12.2 °F -7.6 °F 84% 29.75 in 10.0 mi South 3.5 mph - N/A   Overcast
3:16 AM -4.4 °F -15.0 °F -9.0 °F 80% 29.74 in 10.0 mi SSW 4.6 mph - N/A   Overcast
3:37 AM -2.2 °F -14.2 °F -7.2 °F 79% 29.73 in 10.0 mi SSW 5.8 mph - N/A   Overcast
3:57 AM 0.3 °F -12.6 °F -5.3 °F 77% 29.71 in 10.0 mi South 6.9 mph - N/A   Overcast
4:17 AM -0.0 °F -11.6 °F -5.6 °F 77% 29.70 in 10.0 mi South 5.8 mph - N/A   Overcast
4:37 AM 1.4 °F -9.9 °F -4.4 °F 77% 29.69 in 10.0 mi South 5.8 mph - N/A   Overcast
4:56 AM 1.4 °F -9.9 °F -4.9 °F 75% 29.68 in 10.0 mi SSW 5.8 mph - N/A   Overcast
5:17 AM 0.7 °F -13.3 °F -4.9 °F 77% 29.67 in 10.0 mi SSW 8.1 mph - N/A   Overcast
5:37 AM 1.4 °F -11.3 °F -4.0 °F 78% 29.68 in 2.0 mi SSW 6.9 mph - N/A Snow Light Snow
5:56 AM 1.8 °F -12.0 °F -2.6 °F 82% 29.69 in 1.0 mi SSW 8.1 mph - N/A Snow Light Snow
6:50 AM 3.2 °F -11.3 °F -0.4 °F 85% 29.65 in 1.8 mi South 9.2 mph - N/A Snow Light Snow
7:50 AM 5.0 °F -10.8 °F 1.4 °F 85% 29.63 in 1.5 mi South 11.5 mph - N/A Snow Light Snow
8:50 AM 5.0 °F -9.1 °F 1.4 °F 85% 29.63 in 2.5 mi SSW 9.2 mph - N/A Snow Light Snow
9:50 AM 6.8 °F -2.0 °F 3.2 °F 85% 29.62 in 7.0 mi SW 4.6 mph - N/A Snow Light Snow
10:50 AM 8.6 °F 0.1 °F 5.0 °F 85% 29.62 in 7.0 mi WSW 4.6 mph - N/A Snow Light Snow
11:50 AM 12.2 °F 4.3 °F 6.8 °F 79% 29.63 in 10.0 mi West 4.6 mph - N/A   Scattered Clouds
12:50 PM 17.6 °F 5.7 °F 10.4 °F 73% 29.63 in 10.0 mi NW 10.4 mph - N/A   Scattered Clouds
1:55 PM 21.2 °F 8.3 °F 8.6 °F 58% 29.66 in 10.0 mi North 13.8 mph 23.0 mph N/A   Overcast
2:50 PM 21.2 °F 6.8 °F 8.6 °F 58% 29.68 in 10.0 mi NNW 17.3 mph - N/A   Mostly Cloudy
3:50 PM 21.2 °F 9.5 °F 10.4 °F 63% 29.72 in 10.0 mi NNW 11.5 mph 18.4 mph N/A   Overcast
4:10 PM 19.4 °F 5.0 °F 14.0 °F 80% 29.73 in 2.5 mi North 16.1 mph 23.0 mph N/A Snow Light Snow
4:50 PM 17.6 °F 1.7 °F 14.0 °F 86% 29.75 in 5.0 mi North 18.4 mph 24.2 mph N/A Snow Light Snow
5:50 PM 15.8 °F 1.4 °F 10.4 °F 79% 29.79 in 5.0 mi North 13.8 mph - N/A Snow Light Snow
6:50 PM 15.8 °F 1.4 °F 10.4 °F 79% 29.84 in 10.0 mi NNW 13.8 mph 23.0 mph N/A Snow Light Snow
7:50 PM 14.0 °F -2.0 °F 6.8 °F 73% 29.89 in 10.0 mi NNW 16.1 mph 23.0 mph N/A   Mostly Cloudy
8:50 PM 10.4 °F -3.3 °F 3.2 °F 73% 29.91 in 10.0 mi NNW 10.4 mph 17.3 mph N/A   Scattered Clouds
9:50 PM 8.6 °F -1.3 °F 3.2 °F 79% 29.92 in 10.0 mi NW 5.8 mph - N/A   Scattered Clouds
10:17 PM 9.0 °F -2.2 °F 3.2 °F 77% 29.93 in 10.0 mi WNW 6.9 mph - N/A   Clear
10:36 PM 8.6 °F -1.3 °F 3.6 °F 80% 29.93 in 10.0 mi WNW 5.8 mph - N/A   Clear
10:57 PM 8.2 °F -4.1 °F 3.6 °F 81% 29.94 in 10.0 mi WNW 8.1 mph - N/A   Clear
11:17 PM 7.2 °F -5.4 °F 2.8 °F 82% 29.94 in 10.0 mi WNW 8.1 mph - N/A   Clear
11:36 PM 6.4 °F -3.9 °F 2.7 °F 84% 29.95 in 10.0 mi WNW 5.8 mph - N/A   Clear
11:57 PM 3.7 °F -5.5 °F -0.0 °F 84% 29.97 in 10.0 mi WNW 4.6 mph - N/A   Scattered Clouds